Wind_Speed
33 33 33 34 34 35 33 30 28 26 26 26 26 25 24 23 22 21 20 19 19 18 18 18 18 17 16 15 13 12 12 11 9 9 8 7 7 6 5 4 4 4 5 5 5 5 6 7 7
32 33 34 35 35 35 33 30 29 28 27 28 28 27 26 25 24 23 21 20 20 20 20 20 19 19 18 17 16 15 14 13 12 10 10 9 9 8 7 6 6 6 6 6 6 6 7 8 8
32 32 34 35 35 34 32 31 30 29 30 29 29 29 27 26 25 24 23 22 22 22 22 21 21 20 20 19 18 17 16 15 14 13 12 11 10 10 9 9 8 8 7 7 7 8 8 9 10
32 33 34 35 35 33 32 32 32 31 31 31 30 30 29 28 27 26 25 24 23 23 23 22 22 22 21 20 20 19 18 18 16 15 14 13 12 11 11 10 10 10 9 9 9 9 10 10 11
32 34 35 36 35 32 33 33 33 33 32 32 32 31 30 29 28 28 27 26 25 24 24 24 24 23 23 22 22 21 20 20 18 17 16 15 15 14 13 12 12 11 11 11 11 11 11 12 12
33 34 36 36 35 35 36 35 35 34 33 32 33 32 31 30 29 28 28 28 27 26 25 25 25 25 24 24 23 22 22 21 20 19 18 17 16 16 16 15 14 14 13 13 13 13 13 13 14
34 35 36 35 36 37 37 36 36 36 35 33 33 33 32 32 30 30 29 29 28 28 27 26 26 25 25 25 24 23 23 22 22 21 20 19 18 17 17 17 16 16 15 15 15 15 14 15 15
34 35 36 36 36 37 38 38 37 38 37 35 35 34 33 32 32 30 29 29 29 29 28 27 27 26 27 27 26 25 24 24 24 23 22 21 20 19 18 18 18 18 18 17 17 17 17 16 16
34 35 35 35 36 37 38 39 38 38 38 36 36 35 34 34 33 31 30 30 30 30 30 30 29 28 28 28 27 27 26 26 26 25 24 23 22 22 21 20 20 19 19 19 19 19 19 18 18
34 34 32 33 35 38 39 40 39 39 39 38 37 36 35 35 34 33 32 31 30 31 32 32 31 30 30 29 29 28 28 27 27 26 26 25 25 25 24 23 23 21 21 21 21 21 21 20 20
33 33 31 32 33 36 38 39 40 40 39 39 38 38 37 36 36 35 34 32 31 32 33 33 33 32 31 30 30 30 29 29 29 28 28 27 27 27 26 26 25 24 24 23 22 23 22 22 22
31 32 31 32 34 35 37 38 40 41 39 38 39 39 39 38 37 36 35 34 33 32 33 33 33 33 32 32 31 31 30 30 30 30 30 29 29 28 28 28 27 26 26 25 25 25 25 25 24
30 31 31 32 33 35 37 38 39 40 39 39 39 40 40 40 38 37 37 36 35 34 34 34 34 33 33 33 32 32 31 31 31 31 31 30 30 30 30 30 30 29 28 27 27 27 27 27 27
30 32 33 34 34 35 37 38 39 40 40 40 40 41 41 41 40 38 38 38 37 36 36 35 35 34 34 35 34 34 34 33 32 31 31 31 31 31 31 31 31 31 30 30 29 28 28 28 29
29 32 34 34 34 35 37 39 40 41 41 41 42 42 42 42 41 40 39 38 38 38 38 37 37 36 36 37 37 35 36 35 34 33 32 32 32 32 33 33 33 33 32 32 32 31 31 30 30
27 30 33 34 35 36 37 38 37 39 41 41 42 43 43 42 42 41 40 39 39 39 39 39 39 39 38 38 38 38 37 37 36 35 34 33 33 34 33 34 34 34 34 34 34 34 34 34 33
27 28 31 33 35 35 37 36 35 37 40 41 41 43 43 44 44 44 43 41 41 40 40 40 40 40 40 39 38 38 39 38 37 37 37 36 35 34 34 34 35 35 35 36 36 36 36 36 35
26 28 29 31 33 35 37 37 35 36 39 41 41 41 42 43 44 44 44 43 43 42 41 42 43 43 42 41 40 40 41 39 38 39 39 37 37 36 36 36 37 37 37 37 38 38 37 37 37
27 28 30 31 32 35 37 38 36 36 39 40 40 41 42 42 43 45 45 45 44 44 44 44 44 45 45 44 42 41 41 41 41 40 38 39 39 39 39 39 38 38 38 39 39 38 38 38 38
26 28 29 31 32 34 35 36 36 36 38 39 39 40 43 43 42 43 44 45 45 45 45 45 46 46 47 45 44 43 43 43 42 41 41 40 40 40 40 41 41 40 39 38 39 39 39 39 38
24 25 26 28 30 30 32 33 34 34 35 38 40 41 41 42 43 43 44 45 45 46 46 46 46 47 47 47 46 45 44 44 44 43 43 43 42 41 42 42 42 41 41 40 39 39 39 39 39
22 21 22 24 26 26 27 31 32 33 33 35 38 39 41 42 43 44 44 43 43 44 46 46 46 47 47 47 48 47 45 44 44 45 45 44 44 44 43 42 42 42 43 42 40 40 40 40 40
18 19 19 20 22 25 25 28 28 30 32 33 35 37 40 41 42 44 44 44 44 43 44 46 47 48 48 48 48 48 47 45 45 46 46 46 45 44 44 44 44 43 42 42 42 41 40 40 41
17 17 17 19 20 22 24 26 26 25 27 29 32 35 38 39 40 43 44 44 44 44 45 46 48 48 48 48 48 47 48 49 47 47 46 46 45 44 44 43 44 43 42 42 42 41 39 39 39
15 15 16 18 19 20 21 24 23 23 24 27 29 32 35 37 38 39 42 44 44 45 45 46 47 48 48 49 50 50 49 50 50 49 48 47 45 45 44 44 44 44 43 42 42 41 40 40 39
14 15 17 18 20 20 21 22 20 23 25 27 29 31 33 35 36 37 39 41 43 44 44 46 46 47 48 49 51 50 50 50 49 49 49 48 47 45 46 45 44 43 43 42 41 40 40 40 40
16 16 17 19 20 21 21 21 20 21 25 27 28 30 32 34 35 35 37 39 41 42 43 44 46 47 47 48 49 50 51 50 49 48 48 48 47 45 45 45 44 44 43 42 41 41 42 42 40
16 17 18 19 21 22 22 21 20 21 24 25 25 27 29 31 33 34 36 38 40 42 42 42 43 44 46 48 49 49 50 49 49 48 46 47 47 47 46 44 43 43 42 42 42 42 42 41 40
16 16 18 20 21 23 22 20 21 22 23 24 24 27 29 30 32 34 35 36 37 39 40 41 42 43 45 46 48 49 49 48 47 47 47 47 47 46 46 45 44 43 41 41 41 42 42 42 41
17 18 19 20 22 23 24 21 20 21 22 24 25 26 28 29 30 32 33 35 37 38 39 41 41 42 44 45 47 48 48 48 47 47 46 47 47 46 45 45 45 43 42 41 41 41 41 41 41
Wind_Direction
250 248 246 243 242 244 245 244 242 240 240 240 240 241 241 240 241 243 241 240 240 240 238 236 236 237 237 238 238 237 239 240 241 243 245 247 249 253 261 275 278 282 288 292 298 307 312 315 319
248 245 244 242 242 243 244 244 242 240 240 239 239 239 240 240 241 243 242 241 240 239 239 238 237 237 238 238 239 240 241 242 243 244 247 250 249 252 256 263 268 276 282 287 292 300 306 310 314
245 243 243 242 243 243 243 241 240 239 239 239 239 239 240 240 241 243 244 243 242 241 241 240 239 239 239 239 241 242 242 242 243 244 247 250 250 252 256 260 264 271 277 282 288 294 299 304 308
243 242 243 243 244 244 243 241 239 238 238 238 238 238 240 241 241 242 244 244 243 243 242 241 241 240 241 240 241 242 243 243 243 244 246 250 250 252 256 259 263 265 270 278 285 289 294 298 302
245 243 243 243 244 243 241 240 239 239 239 238 238 238 240 241 242 241 243 244 244 245 242 240 240 241 241 241 242 243 243 242 244 244 246 249 251 252 255 258 260 262 266 273 280 286 291 294 298
244 244 244 244 244 242 240 240 238 239 240 239 238 238 238 240 241 241 242 244 244 244 242 240 240 240 241 242 243 244 243 241 243 245 246 248 251 253 255 257 259 261 263 268 275 281 287 293 295
245 246 246 246 245 243 241 241 240 239 239 239 238 238 238 239 239 240 241 243 244 243 241 240 240 240 241 242 243 244 244 243 245 245 246 248 251 254 256 256 258 261 263 266 272 277 283 289 294
247 248 248 247 246 243 241 242 241 240 240 239 239 239 237 238 239 240 241 242 243 242 241 240 240 240 241 242 243 243 244 244 245 246 247 248 251 253 256 258 259 261 263 266 269 274 279 285 291
249 250 250 248 246 242 240 241 241 240 239 239 239 239 238 238 239 240 241 241 242 242 241 240 240 240 241 243 243 244 246 245 245 246 247 249 251 253 255 258 261 263 264 266 269 272 277 282 287
251 252 252 247 245 241 238 239 240 238 238 239 239 239 238 238 239 241 242 242 242 242 241 239 238 240 241 243 244 244 247 246 246 248 249 250 252 254 255 258 260 264 265 266 268 271 275 280 285
254 252 251 248 246 244 241 240 238 237 238 239 239 238 238 238 239 242 244 243 242 242 241 239 239 239 241 243 244 244 246 247 246 248 250 251 252 253 255 258 259 261 264 266 267 269 273 277 281
254 250 251 250 247 247 244 240 239 239 238 239 240 238 239 240 241 242 243 241 241 241 242 241 242 240 241 243 244 244 245 247 247 247 250 251 253 254 255 257 259 261 263 265 266 268 271 274 278
253 249 251 248 246 247 246 242 240 240 239 239 240 239 238 240 242 242 242 241 241 242 242 242 241 241 241 243 244 245 245 246 246 247 249 251 253 254 256 257 258 261 263 264 266 267 270 273 276
254 252 251 249 250 249 248 243 241 240 239 239 239 239 239 240 242 242 242 241 243 243 243 242 241 240 241 241 243 246 246 246 246 247 249 251 253 254 256 257 259 260 262 262 264 266 269 271 274
258 255 251 251 251 251 247 243 243 241 239 239 239 239 239 239 240 242 244 243 243 243 243 242 241 241 242 242 242 245 246 246 248 250 251 252 253 255 256 258 259 260 261 262 263 265 268 271 273
262 259 254 253 253 250 245 244 243 241 241 240 239 239 239 239 239 241 242 243 243 243 244 242 242 242 241 242 243 245 246 246 248 250 252 252 253 255 257 259 260 261 262 262 263 265 268 270 272
264 262 260 256 253 251 247 245 244 242 242 241 240 240 239 239 239 241 242 243 243 243 244 244 242 241 241 242 243 245 244 244 247 249 252 253 255 256 257 259 261 262 263 263 264 266 268 270 272
270 267 263 259 255 251 249 248 246 245 244 242 241 241 241 241 241 241 241 242 243 244 245 245 243 242 242 244 245 245 245 246 247 248 251 252 255 257 259 261 262 263 263 264 265 266 268 271 271
272 268 263 259 257 255 252 250 248 247 246 244 242 242 243 244 244 242 242 242 243 245 245 245 244 243 243 244 245 245 246 247 249 250 251 252 254 257 259 261 263 264 264 264 264 265 267 270 271
272 269 265 259 258 257 255 251 249 247 245 243 242 243 243 243 242 242 242 243 243 244 245 245 245 244 244 245 246 245 247 249 251 252 253 253 254 257 260 262 263 264 264 264 264 264 266 269 270
274 273 268 263 261 261 259 253 250 247 245 243 243 244 244 242 243 241 242 242 243 244 245 246 247 246 246 245 245 246 248 250 251 252 254 255 256 258 260 262 263 264 264 264 264 265 266 268 269
276 274 270 269 267 261 262 260 252 249 246 246 245 246 245 245 244 242 242 243 242 243 245 246 246 246 246 247 247 249 250 252 253 254 255 258 260 260 260 262 263 263 263 264 265 264 267 269 271
281 278 274 273 271 265 263 263 257 252 251 248 246 248 246 246 244 243 242 243 243 244 246 247 246 246 247 247 248 249 250 251 253 254 255 257 260 260 259 262 262 263 264 265 265 267 267 270 272
284 279 273 272 272 266 265 264 262 256 254 251 247 248 247 246 245 244 243 244 245 245 247 247 247 247 248 248 249 251 252 252 253 254 256 258 259 260 260 260 259 261 264 266 265 265 267 270 271
288 281 277 278 275 271 270 266 266 260 258 254 251 250 250 249 247 245 244 246 246 246 247 247 247 248 249 250 250 253 253 253 254 256 257 258 259 258 259 260 259 262 264 264 265 265 265 267 268
291 286 280 282 280 279 272 270 272 263 260 258 258 255 253 252 250 248 247 248 248 248 249 249 249 248 248 250 251 253 255 255 256 258 258 258 259 258 258 259 261 263 265 265 266 266 265 266 268
294 288 282 283 285 286 277 276 272 267 264 261 261 259 256 254 252 250 250 250 249 249 249 249 250 250 250 251 252 253 254 256 257 259 260 259 259 260 259 260 262 264 265 267 267 267 266 267 269
294 292 288 286 286 287 285 282 281 275 271 265 261 261 257 255 253 251 251 251 251 249 249 249 251 252 254 254 255 256 255 256 256 258 260 261 261 260 259 259 261 263 263 265 267 267 266 266 268
293 293 293 292 286 286 288 287 287 280 276 270 267 264 260 257 256 252 252 252 251 250 249 250 251 253 255 256 256 257 257 257 258 259 260 261 262 261 260 260 261 262 263 263 265 266 265 265 267
291 292 292 292 288 286 287 292 290 283 280 273 270 268 262 259 258 255 254 253 253 252 252 252 253 254 256 256 257 258 259 259 259 259 260 261 261 260 261 260 260 260 260 260 262 264 265 266 266
Height
5788 5790 5793 5795 5798 5800 5803 5810 5814 5818 5820 5823 5826 5828 5831 5834 5837 5840 5840 5840 5841 5843 5844 5845 5847 5848 5849 5851 5852 5854 5855 5855 5856 5857 5858 5858 5859 5860 5860 5861 5861 5861 5861 5861 5861 5861 5861 5861 5860
5780 5782 5785 5788 5790 5793 5799 5805 5809 5813 5815 5818 5821 5824 5826 5829 5832 5834 5835 5836 5838 5840 5841 5842 5844 5845 5847 5848 5850 5851 5852 5853 5854 5855 5856 5857 5857 5858 5859 5859 5860 5860 5860 5860 5860 5860 5859 5859 5859
5772 5774 5778 5780 5783 5788 5794 5799 5804 5807 5810 5813 5816 5819 5822 5825 5827 5829 5831 5833 5835 5836 5838 5839 5841 5842 5843 5845 5846 5848 5849 5850 5852 5853 5854 5855 5855 5856 5857 5857 5858 5858 5858 5858 5858 5858 5858 5857 5857
5765 5768 5770 5773 5777 5784 5789 5793 5796 5800 5803 5807 5810 5813 5817 5820 5823 5825 5826 5828 5830 5832 5834 5835 5837 5838 5840 5841 5843 5844 5846 5847 5849 5850 5851 5852 5853 5854 5854 5855 5855 5856 5856 5856 5856 5856 5856 5855 5855
5758 5760 5763 5766 5772 5778 5782 5786 5790 5793 5797 5801 5804 5808 5811 5814 5817 5820 5822 5823 5826 5828 5829 5831 5833 5834 5836 5838 5839 5841 5842 5844 5845 5847 5848 5849 5850 5851 5852 5852 5853 5853 5854 5854 5854 5854 5853 5853 5852
5751 5753 5756 5760 5766 5771 5775 5779 5784 5787 5791 5795 5798 5802 5805 5809 5812 5814 5816 5819 5821 5823 5825 5826 5828 5830 5832 5833 5835 5837 5838 5840 5842 5843 5844 5846 5847 5848 5849 5849 5850 5850 5851 5851 5851 5851 5851 5850 5850
5744 5746 5749 5754 5759 5764 5769 5772 5777 5781 5784 5788 5791 5795 5799 5802 5805 5808 5811 5813 5815 5817 5819 5821 5823 5825 5827 5829 5830 5832 5834 5836 5837 5839 5841 5842 5843 5844 5845 5846 5846 5847 5848 5848 5848 5848 5848 5847 5847
5736 5739 5742 5746 5751 5756 5761 5764 5769 5773 5777 5781 5784 5789 5793 5796 5799 5802 5805 5807 5809 5811 5813 5816 5818 5820 5822 5823 5825 5827 5829 5831 5833 5835 5836 5838 5839 5840 5841 5842 5843 5844 5844 5844 5844 5845 5845 5844 5843
5729 5733 5735 5739 5743 5748 5752 5756 5761 5765 5769 5773 5777 5782 5787 5790 5793 5796 5799 5801 5803 5805 5807 5809 5811 5814 5816 5818 5820 5822 5824 5826 5828 5830 5832 5833 5834 5836 5837 5838 5839 5839 5840 5840 5841 5841 5841 5840 5840
5721 5724 5728 5732 5736 5740 5743 5748 5752 5756 5761 5766 5770 5775 5779 5783 5786 5789 5792 5794 5796 5798 5800 5803 5805 5808 5810 5812 5814 5817 5818 5820 5823 5825 5826 5828 5829 5831 5832 5833 5834 5835 5836 5836 5836 5836 5836 5836 5836
5714 5717 5721 5724 5727 5731 5735 5739 5743 5748 5753 5759 5763 5768 5772 5776 5779 5782 5785 5787 5790 5792 5794 5796 5799 5801 5804 5806 5808 5810 5813 5814 5816 5818 5820 5822 5824 5825 5826 5827 5829 5830 5830 5831 5831 5831 5831 5831 5831
5707 5711 5713 5716 5719 5722 5726 5730 5735 5740 5746 5751 5755 5760 5764 5768 5772 5775 5778 5780 5783 5785 5787 5790 5792 5795 5797 5800 5802 5804 5806 5808 5810 5812 5814 5816 5817 5819 5820 5821 5823 5824 5824 5825 5826 5826 5826 5826 5825
5701 5704 5706 5709 5711 5714 5717 5722 5726 5732 5737 5741 5746 5751 5756 5760 5764 5767 5769 5772 5775 5777 5780 5783 5785 5788 5790 5793 5796 5798 5799 5801 5803 5805 5807 5809 5811 5813 5814 5815 5816 5817 5818 5819 5819 5820 5820 5820 5820
5695 5697 5700 5702 5703 5706 5708 5713 5717 5723 5728 5732 5737 5742 5747 5751 5755 5758 5761 5764 5767 5770 5773 5776 5778 5781 5783 5786 5788 5791 5793 5795 5796 5798 5800 5802 5804 5806 5807 5809 5810 5810 5811 5812 5813 5813 5813 5813 5814
5689 5690 5693 5694 5695 5697 5699 5704 5708 5714 5718 5723 5727 5733 5738 5742 5746 5750 5753 5756 5760 5762 5765 5768 5771 5773 5775 5778 5781 5783 5786 5788 5790 5791 5793 5795 5797 5798 5800 5801 5802 5803 5804 5805 5805 5806 5806 5806 5807
5683 5684 5685 5687 5687 5689 5692 5695 5701 5704 5708 5713 5718 5723 5728 5733 5737 5742 5745 5748 5751 5754 5757 5760 5763 5766 5768 5770 5773 5775 5778 5781 5783 5784 5786 5788 5790 5791 5792 5794 5795 5795 5796 5797 5797 5798 5799 5799 5799
5676 5677 5678 5679 5679 5680 5683 5687 5692 5695 5699 5704 5708 5713 5718 5723 5728 5732 5736 5739 5743 5746 5749 5752 5755 5759 5761 5762 5765 5767 5770 5773 5775 5777 5778 5780 5782 5783 5785 5786 5786 5787 5787 5788 5789 5790 5790 5791 5791
5671 5671 5671 5672 5672 5673 5675 5679 5684 5687 5690 5694 5700 5704 5709 5713 5719 5723 5727 5731 5735 5738 5741 5744 5747 5750 5753 5755 5757 5759 5762 5764 5767 5769 5771 5772 5774 5775 5777 5777 5778 5778 5778 5779 5780 5781 5782 5782 5783
5664 5664 5664 5666 5666 5666 5668 5672 5676 5678 5681 5685 5691 5695 5700 5704 5709 5714 5718 5722 5726 5729 5732 5735 5738 5741 5744 5747 5749 5751 5754 5756 5759 5761 5763 5764 5765 5767 5768 5768 5769 5769 5769 5770 5770 5771 5772 5773 5774
5658 5657 5658 5659 5659 5659 5661 5663 5667 5669 5673 5677 5681 5685 5689 5694 5699 5703 5708 5712 5716 5719 5723 5726 5729 5732 5735 5738 5741 5743 5745 5748 5750 5752 5753 5755 5757 5758 5759 5759 5759 5760 5760 5760 5761 5762 5763 5764 5765
5653 5652 5652 5652 5653 5653 5653 5656 5659 5662 5664 5668 5672 5675 5679 5684 5689 5694 5698 5702 5706 5710 5713 5717 5720 5723 5726 5729 5731 5734 5736 5738 5741 5743 5744 5746 5747 5748 5749 5750 5750 5751 5751 5752 5753 5753 5754 5755 5755
5648 5648 5647 5646 5646 5647 5648 5648 5653 5654 5657 5660 5663 5666 5669 5674 5679 5683 5688 5693 5697 5700 5704 5707 5710 5714 5717 5719 5722 5724 5727 5729 5732 5733 5735 5736 5737 5738 5739 5740 5741 5742 5742 5743 5744 5745 5745 5745 5746
5644 5644 5643 5642 5642 5642 5643 5642 5646 5647 5649 5652 5655 5657 5660 5663 5667 5672 5677 5682 5687 5691 5695 5697 5700 5703 5706 5708 5711 5713 5716 5719 5721 5723 5725 5726 5727 5728 5729 5730 5731 5732 5733 5734 5735 5735 5736 5736 5736
5641 5641 5640 5639 5638 5638 5639 5638 5640 5642 5643 5645 5647 5649 5651 5654 5657 5662 5667 5671 5677 5681 5685 5687 5689 5692 5695 5698 5700 5703 5706 5708 5710 5712 5714 5716 5717 5718 5719 5720 5721 5722 5724 5725 5726 5726 5727 5727 5727
5639 5638 5637 5635 5634 5635 5635 5633 5635 5637 5637 5638 5640 5641 5642 5645 5648 5652 5657 5661 5665 5670 5673 5676 5679 5682 5685 5687 5690 5692 5695 5697 5699 5701 5703 5705 5707 5708 5709 5710 5711 5712 5714 5715 5716 5717 5718 5718 5718
5636 5635 5634 5633 5631 5631 5630 5629 5632 5632 5632 5631 5632 5633 5634 5636 5639 5643 5647 5651 5655 5658 5662 5665 5668 5670 5673 5676 5678 5681 5684 5686 5689 5690 5692 5694 5696 5698 5699 5700 5702 5703 5704 5705 5706 5707 5708 5709 5709
5633 5632 5631 5630 5627 5626 5625 5626 5627 5627 5626 5625 5626 5625 5626 5628 5630 5634 5637 5641 5644 5647 5651 5653 5656 5659 5661 5664 5666 5669 5672 5675 5677 5679 5681 5682 5684 5686 5688 5690 5691 5693 5694 5695 5696 5697 5698 5699 5699
5631 5630 5628 5626 5623 5621 5621 5621 5623 5622 5621 5620 5619 5619 5619 5621 5623 5625 5628 5631 5633 5636 5639 5642 5644 5647 5650 5652 5655 5657 5660 5662 5665 5668 5669 5671 5673 5675 5677 5679 5681 5682 5684 5685 5686 5687 5687 5688 5689
5629 5627 5625 5623 5620 5618 5616 5620 5618 5617 5615 5614 5613 5613 5613 5614 5616 5617 5619 5621 5624 5626 5629 5631 5633 5635 5638 5640 5643 5645 5648 5650 5653 5656 5658 5659 5661 5663 5665 5667 5669 5671 5673 5674 5675 5676 5677 5678 5679
5625 5624 5622 5621 5618 5615 5613 5616 5613 5611 5609 5608 5607 5606 5606 5607 5607 5608 5610 5612 5614 5616 5618 5621 5623 5625 5627 5629 5631 5633 5636 5638 5641 5643 5646 5647 5649 5652 5654 5656 5658 5660 5662 5663 5664 5665 5666 5667 5668